Regional Weather Roundup
Issued by NWS

Home | Current Version | Previous Version | Text Only | Print | Product List | Glossary Off
Versions: 1 2 3 4 5 6 7 8 9 10 11 12 13 14 15 16 17 18 19 20 21 22 23 24 25 26 27 28 29 30 31 32 33 34 35 36 37 38 39 40 41 42 43 44 45 46 47 48 49 50

000
ASUS43 KLOT 032208
RWRIL

ILLINOIS REGIONAL WEATHER ROUNDUP
NATIONAL WEATHER SERVICE CHICAGO/ROMEOVILLE IL
500 PM CDT MON AUG 03 2015

NOTE: "FAIR" INDICATES FEW OR NO CLOUDS BELOW 12,000 FEET WITH NO
SIGNIFICANT WEATHER AND/OR OBSTRUCTIONS TO VISIBILITY.

* THESE STATIONS ARE NOT UNDER NWS QUALITY CONTROL. THEY ALSO MAY NOT
  REPORT WEATHER SUCH AS PRECIPITATION OR FOG.

ILZ001-002-007-009-015-016-024-032300-
NORTHWEST ILLINOIS

CITY           SKY/WX    TMP DP  RH WIND       PRES   REMARKS
MOLINE         SUNNY     82  54  37 NW12      29.90F HX  81
STERLING*      SUNNY     81  54  39 W13       29.87S HX  80
SAVANNA*       SUNNY     82  49  32 W13       29.89S HX  80
$$

ILZ003-004-008-010-011-017-018-032300-
NORTH CENTRAL ILLINOIS

CITY           SKY/WX    TMP DP  RH WIND       PRES   REMARKS
ROCKFORD       MOSUNNY   81  50  33 W13       29.88F HX  80
FREEPORT*      SUNNY     78  52  39 W10       29.90F
ROCHELLE*      SUNNY     79  52  38 W12       29.89S
DE KALB*       SUNNY     78  53  40 NW12G22   29.89S
PERU*          SUNNY     80  48  32 NW12      29.90S
$$

ILZ005-006-012>014-019>023-032300-
NORTHEAST ILLINOIS

CITY           SKY/WX    TMP DP  RH WIND       PRES   REMARKS
CHICAGO-OHARE  MOSUNNY   81  48  31 NW13G23   29.85S HX  80
CHICAGO-MIDWAY MOSUNNY   83  44  25 NW16      29.85S HX  81
AURORA         SUNNY     79  52  38 NW13      29.88S
LANSING*       SUNNY     82  46  28 NW12      29.86S HX  80
JOLIET*        SUNNY     83  51  33 W8G16     29.87F HX  81
WAUKEGAN       SUNNY     79  50  36 W9        29.84F
DUPAGE AIRPORT SUNNY     79  51  37 W14       29.86F
KANKAKEE*      SUNNY     82  52  35 NW9G16    29.88S HX  81
WHEELING       SUNNY     81  46  29 NW15      29.86S HX  80
MORRIS*        SUNNY     80  53  39 NW13      29.87F HX  80
ROMEOVILLE*    SUNNY     79  48  33 W15       29.87S
NORTHERLY ISL    N/A     81  43  26 W12         N/A
$$

LMZ740>746-032300-
SOUTHERN LAKE MICHIGAN

STATION/POSITION SKY/WX   TEMP    WIND        PRES    VSBY  WAVE
                          AIR SEA DIR/SP/G                  HT/PER
                          (F)     (DEG/KT/KT) (MB)    (MI)  (FT/S)
HARRISON CRIB              78     290/ 14/ 18   N/A
BURNHAM HARBOR             81     270/ 12/ 14   N/A
CALUMET HARBOR             75      70/  6/  9   N/A
BURNS HARBOR               74      30/  5/  7 1011.5S
MICHIGAN CITY              77     340/  5/  6   N/A
MICHIGAN CITY 6N           74 75   10/  6/  8   N/A           2/ 4
ST. JOSEPH                 74 73   10/ 10/ 12   N/A           2/ 4
$$

ILZ025>027-034>036-040-047-049-050-058-095>099-032300-
WEST-CENTRAL ILLINOIS

CITY           SKY/WX    TMP DP  RH WIND       PRES   REMARKS
QUINCY         MOSUNNY   82  63  52 CALM      29.91F HX  83
GALESBURG*     SUNNY     80  57  45 NW8       29.92F HX  80
MACOMB*        SUNNY     81  62  51 W5        29.94F HX  82
JACKSONVILLE*  MOSUNNY   83  66  57 NW6       29.90F HX  85
PITTSFIELD*    PTSUNNY   84  61  45 W5        29.92F HX  84
$$

ILZ028>032-037-038-041>044-048-051>054-059>061-032300-
CENTRAL ILLINOIS

CITY           SKY/WX    TMP DP  RH WIND       PRES   REMARKS
PONTIAC        SUNNY     80  57  46 NW10      29.90S HX  80
BLOOMINGTON    SUNNY     83  61  47 NW12      29.92R HX  83
DECATUR        MOSUNNY   86  62  44 NW10G18   29.90S HX  86
PEORIA         SUNNY     83  57  41 NW7       29.91S HX  82
LACON*         SUNNY     80  53  40 NW6       29.90S HX  80
LINCOLN*       SUNNY     86  59  39 NW7       29.89S HX  85
SPRINGFIELD    MOSUNNY   84  66  54 W9        29.91S HX  86
TAYLORVILLE    MOSUNNY   82  64  54 NW8       29.91S HX  84
$$

ILZ033-039-045-046-055>057-062-063-032300-
EAST-CENTRAL ILLINOIS

CITY           SKY/WX    TMP DP  RH WIND       PRES   REMARKS
CHAMPAIGN      MOSUNNY   83  65  54 W10       29.89S HX  85
DANVILLE*      PTSUNNY   83  68  60 W10G17    29.84S HX  86
MATTOON        MOSUNNY   87  61  41 W15       29.88S HX  87
PARIS*         MOSUNNY   85  66  52 W15G21    29.87F HX  87
$$

ILZ079-100>102-032300-
SOUTHWEST ILLINOIS

CITY           SKY/WX    TMP DP  RH WIND       PRES   REMARKS
ALTON          MOSUNNY   86  68  54 NW7       29.91F HX  89
BELLEVILLE     MOSUNNY   90  70  50 NW6       29.89S HX  95
CAHOKIA*       MOSUNNY   92  63  38 W9        29.89F HX  93
SPARTA*        MOSUNNY   91  70  50 NW6       29.91S HX  96
$$

ILZ064>066-069>071-074>076-080>082-084>086-088>090-092>094-032300-
SOUTH-CENTRAL ILLINOIS

CITY           SKY/WX    TMP DP  RH WIND       PRES   REMARKS
CARBONDALE     MOSUNNY   90  72  55 NW6       29.89F HX  97
CAIRO*         MOSUNNY   90  74  60 W3        29.89F HX  99
EFFINGHAM*     MOSUNNY   89  58  35 W13       29.90S HX  87
MARION         PTSUNNY   91  73  55 W8        29.90F HX 100
MT. VERNON     MOSUNNY   91  66  43 W7        29.89F HX  94
CENTRALIA*     MOSUNNY   90  65  43 NW9       29.90S HX  91
SALEM*         PTSUNNY   90  67  45 NW9       29.90S HX  93
METROPOLIS*    MOSUNNY   91  74  57 W5        29.90F HX 101
$$

ILZ067-068-072-073-078-083-087-091-032300-
SOUTHEAST ILLINOIS

CITY           SKY/WX    TMP DP  RH WIND       PRES   REMARKS
LAWRENCEVILLE  MOSUNNY   91  69  48 NW14      29.86F HX  96
FLORA*         MOSUNNY   88  67  49 W13       29.89S HX  91
FAIRFIELD*     MOSUNNY   89  68  49 NW7       29.87S HX  93
HARRISBURG*    SUNNY     92  70  47 W12       29.90F HX  97
ROBINSON*      MOSUNNY   87  67  51 NW8       29.87S HX  89
CARMI*         SUNNY     89  66  45 W8        29.87F HX  91
$$

ABBREVIATIONS USED IN REMARKS
   TC - TEMPERATURE IN CELSIUS
  WCI - WIND CHILL INDEX
   HX - HEAT INDEX
  VSB - VISIBILITY
$$



USA.gov is the U.S. government's official web portal to all federal, state and local government web resources and services.